GW1261 Weather Reports


time (UTC)temp
F
wind
direction
speed
knots
gust
knots
rain 1hr
in
rain 24hr
in
rain mn
in
humidity
%
barometer
mb
20260510015032 73 161 0.0 0.0 0.00 0.00 0.00 99 979.6
20260510014529 73 191 0.0 0.0 0.00 0.00 0.00 99 979.4
20260510014026 73 190 0.0 0.0 0.00 0.00 0.00 99 979.5
20260510013520 73 190 0.0 0.0 0.00 0.00 0.00 99 979.2
20260510013016 73 120 0.0 0.0 0.00 0.00 0.00 99 979.1
20260510012511 73 171 0.0 0.0 0.00 0.00 0.00 99 979.3
20260510012007 73 76 0.0 0.9 0.00 0.00 0.00 99 979.2
20260510011501 73 165 0.0 0.0 0.00 0.00 0.00 99 979.3
20260510010957 73 164 0.0 0.0 0.00 0.00 0.00 99 979.2
20260510010455 73 180 0.0 0.0 0.00 0.00 0.00 99 979.1
20260510005951 73 22 0.0 0.0 0.00 0.00 0.00 99 979.1
20260510005447 73 93 0.0 0.0 0.00 0.00 0.00 99 979.2
20260510004945 73 108 0.0 0.9 0.00 0.00 0.00 99 978.9
20260510004442 73 108 0.0 0.9 0.00 0.00 0.00 99 978.8
20260510003940 73 108 0.0 0.9 0.00 0.00 0.00 99 978.9
20260510003437 73 108 0.0 0.9 0.00 0.00 0.00 99 978.9
20260510002937 73 180 0.0 0.0 0.00 0.00 0.00 99 978.8
20260510002433 73 180 0.0 0.0 0.00 0.00 0.00 99 978.6
20260510001929 73 180 0.0 0.0 0.00 0.00 0.00 99 978.5
20260510001427 73 166 0.0 0.0 0.00 0.00 0.00 99 978.4
20260510000924 73 186 0.0 0.0 0.00 0.00 0.00 99 978.5
20260510000421 73 199 0.0 0.0 0.00 0.00 0.00 99 978.5
20260509235917 73 204 0.0 0.0 0.00 0.00 0.00 99 978.8
20260509235409 73 195 0.0 0.0 0.00 0.00 0.00 99 978.4
20260509234904 73 195 0.0 0.0 0.00 0.00 0.00 99 978.3
20260509234402 73 195 0.0 0.0 0.00 0.00 0.00 99 978.1
20260509233900 73 177 0.0 0.0 0.00 0.00 0.00 99 978.1
20260509233357 73 177 0.0 0.0 0.00 0.00 0.00 99 977.9
20260509232852 73 177 0.0 0.0 0.00 0.00 0.00 99 978.0
20260509232351 73 174 0.0 0.0 0.00 0.00 0.00 99 977.9
20260509231846 73 174 0.0 0.0 0.00 0.00 0.00 99 978.0
20260509231343 73 174 0.0 0.0 0.00 0.00 0.00 99 977.7
20260509230841 73 174 0.0 0.0 0.00 0.00 0.00 99 977.7
20260509230338 73 77 0.0 0.0 0.00 0.00 0.00 99 977.5
20260509225833 73 200 0.0 0.0 0.00 0.00 0.00 99 977.6
20260509225330 73 167 0.0 0.0 0.00 0.00 0.00 99 977.5
20260509224826 73 197 0.0 0.0 0.00 0.00 0.00 99 977.6
20260509224322 73 195 0.0 0.0 0.00 0.00 0.00 99 977.1
20260509223820 73 195 0.0 0.0 0.00 0.00 0.00 99 977.1
20260509223316 73 195 0.0 0.0 0.00 0.00 0.00 99 977.0
20260509222813 73 204 0.0 0.0 0.00 0.00 0.00 99 977.0
20260509222308 73 204 0.0 0.0 0.00 0.00 0.00 99 977.0
20260509221804 73 204 0.0 0.0 0.00 0.00 0.00 99 976.9
20260509221302 73 204 0.0 0.0 0.00 0.00 0.00 99 976.9
20260509220757 73 204 0.0 0.0 0.00 0.00 0.00 99 977.0
20260509220253 73 204 0.0 0.0 0.00 0.00 0.00 99 976.7
20260509215748 73 204 0.0 0.0 0.00 0.00 0.00 99 976.8
20260509215245 73 204 0.0 0.0 0.00 0.00 0.00 99 976.7
20260509214742 73 204 0.0 0.0 0.00 0.00 0.00 99 976.9
20260509214240 0 0.0 0.0 0.00 0.00 0.00 977.2
20260509213737 0 0.0 0.0 0.00 0.00 0.00 976.7
20260509213232 0 0.0 0.0 0.00 0.00 0.00 976.8
20260509212730 0 0.0 0.0 0.00 0.00 0.00 976.9
20260509212227 0 0.0 0.0 0.00 0.00 0.00 976.5
20260509211723 0 0.0 0.0 0.00 0.00 0.00 976.7
20260509211219 73 153 0.0 0.0 0.00 0.00 0.00 99 977.0
20260509210716 73 153 0.0 0.0 0.00 0.00 0.00 99 977.1
20260509210213 73 153 0.0 0.0 0.00 0.00 0.00 99 977.0
20260509205713 73 153 0.0 0.0 0.00 0.00 0.00 99 977.2
20260509205213 73 153 0.0 0.0 0.00 0.00 0.00 99 976.8
20260509204709 73 153 0.0 0.0 0.00 0.00 0.00 99 977.1
20260509204206 73 153 0.0 0.0 0.00 0.00 0.00 99 977.3
20260509203701 73 153 0.0 0.0 0.00 0.00 0.00 99 977.2
20260509203200 73 153 0.0 0.0 0.00 0.00 0.00 99 977.2
20260509202655 73 153 0.0 0.0 0.00 0.00 0.00 99 977.3
20260509202150 73 153 0.0 0.0 0.00 0.00 0.00 99 977.5
20260509201646 73 153 0.0 0.0 0.00 0.00 0.00 99 977.1
20260509201144 73 162 0.0 0.0 0.00 0.00 0.00 99 977.3
20260509200639 73 205 0.0 0.0 0.00 0.00 0.00 99 977.1
20260509200134 73 205 0.0 0.0 0.00 0.00 0.00 99 977.3
20260509195630 73 205 0.0 0.0 0.00 0.00 0.00 99 977.1
20260509195126 73 205 0.0 0.0 0.00 0.00 0.00 99 977.3
20260509194625 73 205 0.0 0.0 0.00 0.00 0.00 99 977.3
20260509194123 73 205 0.0 0.0 0.00 0.00 0.00 99 977.2
20260509193618 73 205 0.0 0.0 0.00 0.00 0.00 99 977.1
20260509193114 73 205 0.0 0.0 0.00 0.00 0.00 99 977.3
20260509192611 73 205 0.0 0.0 0.00 0.00 0.00 99 977.5
20260509192106 73 205 0.0 0.0 0.00 0.00 0.00 99 977.5
20260509191601 73 205 0.0 0.0 0.00 0.00 0.00 99 977.3
20260509191057 73 198 0.0 0.0 0.00 0.00 0.00 99 977.8
20260509190554 74 207 0.0 0.0 0.00 0.00 0.00 99 977.6
20260509190052 74 203 0.0 0.0 0.00 0.00 0.00 99 977.5
20260509185549 75 211 0.0 0.0 0.00 0.00 0.00 99 977.5
20260509185045 75 213 0.0 0.0 0.00 0.00 0.00 99 977.8
20260509184544 75 196 0.0 0.0 0.00 0.00 0.00 99 977.7
20260509184039 75 196 0.0 0.0 0.00 0.00 0.00 99 977.8
20260509183535 75 192 0.0 0.0 0.00 0.00 0.00 99 977.7
20260509183031 75 197 0.0 0.0 0.00 0.00 0.00 99 977.9
20260509182527 75 204 0.0 0.0 0.00 0.00 0.00 99 977.8
20260509182025 75 204 0.0 0.0 0.00 0.00 0.00 99 977.9
20260509181523 75 187 0.0 0.0 0.00 0.00 0.00 99 977.9
20260509181020 75 187 0.0 0.0 0.00 0.00 0.00 99 977.9
20260509180515 0 0.0 0.0 0.00 0.00 0.00 977.8
20260509180014 0 0.0 0.0 0.00 0.00 0.00 977.9
20260509175514 0 0.0 0.0 0.00 0.00 0.00 977.9
20260509175011 0 0.0 0.0 0.00 0.00 0.00 978.0
20260509174508 0 0.0 0.0 0.00 0.00 0.00 978.1
20260509174002 0 0.0 0.0 0.00 0.00 0.00 978.0
20260509173457 0 0.0 0.0 0.00 0.00 0.00 978.0
20260509172954 0 0.0 0.0 0.00 0.00 0.00 978.1
20260509172451 0 0.0 0.0 0.00 0.00 0.00 978.2
20260509171946 0 0.0 0.0 0.00 0.00 0.00 978.2
20260509171443 0 0.0 0.0 0.00 0.00 0.00 978.1
20260509170939 75 230 0.0 0.0 0.00 0.00 0.00 99 978.1
20260509170435 75 230 0.0 0.0 0.00 0.00 0.00 99 978.2
20260509165930 75 230 0.0 0.0 0.00 0.00 0.00 99 978.4
20260509165424 75 230 0.0 0.0 0.00 0.00 0.00 99 978.5
20260509164920 75 230 0.0 0.0 0.00 0.00 0.00 99 978.3
20260509164417 75 230 0.0 0.0 0.00 0.00 0.00 99 978.4
20260509163913 75 230 0.0 0.0 0.00 0.00 0.00 99 978.4
20260509163410 75 230 0.0 0.0 0.00 0.00 0.00 99 978.5
20260509162909 75 230 0.0 0.0 0.00 0.00 0.00 99 978.2
20260509162408 75 230 0.0 0.0 0.00 0.00 0.00 99 978.6
20260509161903 75 230 0.0 0.0 0.00 0.00 0.00 99 978.5
20260509161400 75 230 0.0 0.0 0.00 0.00 0.00 99 978.8
20260509160855 75 231 0.0 0.0 0.00 0.00 0.00 99 978.4
20260509160351 75 229 0.0 0.0 0.00 0.00 0.00 99 978.6
20260509155846 75 232 0.0 0.0 0.00 0.00 0.00 99 978.4
20260509155343 75 232 0.0 0.0 0.00 0.00 0.00 99 978.7
20260509154840 76 221 0.0 0.0 0.00 0.00 0.00 99 978.5
20260509154337 76 221 0.0 0.0 0.00 0.00 0.00 99 978.6
20260509153833 76 221 0.0 0.0 0.00 0.00 0.00 99 978.9
20260509153330 76 221 0.0 0.0 0.00 0.00 0.00 99 978.8
20260509152827 76 221 0.0 0.0 0.00 0.00 0.00 99 978.6
20260509152323 76 221 0.0 0.0 0.00 0.00 0.00 99 978.5
20260509151821 76 221 0.0 0.0 0.00 0.00 0.00 99 978.6
20260509151316 76 220 0.0 0.0 0.00 0.00 0.00 99 978.4
20260509150815 76 220 0.0 0.0 0.00 0.00 0.00 99 978.4
20260509150312 76 217 0.0 0.0 0.00 0.00 0.00 99 978.8
20260509145809 76 217 0.0 0.0 0.00 0.00 0.00 99 978.7
20260509145309 76 221 0.0 0.0 0.00 0.00 0.00 99 978.6
20260509144806 76 224 0.0 0.0 0.00 0.00 0.00 99 978.5
20260509144303 75 217 0.0 0.0 0.00 0.00 0.00 99 978.4
20260509143800 75 217 0.0 0.0 0.00 0.00 0.00 99 978.4
20260509143258 76 219 0.0 0.0 0.00 0.00 0.00 99 978.3
20260509142753 76 218 0.0 0.0 0.00 0.00 0.00 99 978.2
20260509142249 76 219 0.0 0.0 0.00 0.00 0.00 99 978.3
20260509141745 76 219 0.0 0.0 0.00 0.00 0.00 99 978.0
20260509141243 76 218 0.0 0.0 0.00 0.00 0.00 99 978.1
20260509140739 76 218 0.0 0.0 0.00 0.00 0.00 99 978.1
20260509140237 76 219 0.0 0.0 0.00 0.00 0.00 98 978.0
20260509135734 76 222 0.0 0.0 0.00 0.00 0.00 98 977.9
20260509135232 76 212 0.0 0.0 0.00 0.00 0.00 99 977.7
20260509134728 76 213 0.0 0.0 0.00 0.00 0.00 98 977.5
20260509134226 76 213 0.0 0.0 0.00 0.00 0.00 98 977.2
20260509133723 76 212 0.0 0.0 0.00 0.00 0.00 98 977.5
20260509133220 76 212 0.0 0.0 0.00 0.00 0.00 98 977.3
20260509132719 76 212 0.0 0.0 0.00 0.00 0.00 98 977.5
20260509132217 76 194 0.0 0.0 0.00 0.00 0.00 96 977.1
20260509131713 76 212 0.0 0.0 0.00 0.00 0.00 97 976.9
20260509131209 77 213 0.0 0.0 0.00 0.00 0.00 94 976.8
20260509130705 77 186 0.0 0.9 0.00 0.00 0.00 93 976.9
20260509130202 76 65 1.7 1.7 0.00 0.00 0.00 93 976.8
20260509125658 75 248 0.0 0.9 0.00 0.00 0.00 99 976.8
20260509125155 75 10 0.9 1.7 0.00 0.00 0.00 99 976.9
20260509124651 75 30 0.9 1.7 0.00 0.00 0.00 99 976.7
20260509124148 75 63 0.9 0.9 0.00 0.00 0.00 99 976.7
20260509123646 75 48 0.0 0.0 0.00 0.00 0.00 99 976.4
20260509123143 74 15 0.0 0.0 0.00 0.00 0.00 99 976.4
20260509122639 74 234 0.0 0.0 0.00 0.00 0.00 99 976.5
20260509122136 74 234 0.0 0.0 0.00 0.00 0.00 99 976.5
20260509121632 74 157 0.0 0.0 0.00 0.00 0.00 99 976.4
20260509121130 73 222 0.0 0.0 0.00 0.00 0.00 99 976.3
20260509120628 74 229 0.0 0.0 0.00 0.00 0.00 99 976.1
20260509120126 74 226 0.0 0.0 0.00 0.00 0.00 99 975.8
20260509115623 74 230 0.0 0.0 0.00 0.00 0.00 99 975.8
20260509115121 74 229 0.0 0.0 0.00 0.00 0.00 99 975.8
20260509114619 74 229 0.0 0.0 0.00 0.00 0.00 99 976.0
20260509114118 74 230 0.0 0.0 0.00 0.00 0.00 99 975.8
20260509113615 74 230 0.0 0.0 0.00 0.00 0.00 99 975.8
20260509113113 74 224 0.0 0.0 0.00 0.00 0.00 99 975.8
20260509112609 73 222 0.0 0.0 0.00 0.00 0.00 99 975.7
20260509112106 73 222 0.0 0.0 0.00 0.00 0.00 99 975.7
20260509111603 0 0.0 0.0 0.00 0.00 0.00 975.7
20260509111100 0 0.0 0.0 0.00 0.00 0.00 975.7
20260509110557 0 0.0 0.0 0.00 0.00 0.00 975.6
20260509110054 0 0.0 0.0 0.00 0.00 0.00 975.8
20260509105552 0 0.0 0.0 0.00 0.00 0.00 975.6
20260509105050 75 243 0.0 0.0 0.00 0.00 0.00 99 975.6
20260509104546 75 243 0.0 0.0 0.00 0.00 0.00 99 975.7
20260509104043 75 243 0.0 0.0 0.00 0.00 0.00 99 975.3
20260509103541 75 243 0.0 0.0 0.00 0.00 0.00 99 975.6
20260509103039 75 243 0.0 0.0 0.00 0.00 0.00 99 975.2
20260509102536 75 243 0.0 0.0 0.00 0.00 0.00 99 975.2
20260509102033 75 243 0.0 0.0 0.00 0.00 0.00 99 975.4
20260509101529 75 243 0.0 0.0 0.00 0.00 0.00 99 975.5
20260509101026 75 243 0.0 0.0 0.00 0.00 0.00 99 975.2
20260509100523 75 243 0.0 0.0 0.00 0.00 0.00 99 975.2
20260509100021 75 243 0.0 0.0 0.00 0.00 0.00 99 975.1
20260509095517 75 243 0.0 0.0 0.00 0.00 0.00 99 975.2
20260509095015 75 225 0.0 0.0 0.00 0.00 0.00 99 974.8
20260509094511 75 226 0.0 0.0 0.00 0.00 0.00 99 975.1
20260509094008 75 233 0.0 0.0 0.00 0.00 0.00 99 975.0
20260509093506 75 222 0.0 0.0 0.00 0.00 0.00 99 975.1
20260509093004 75 229 0.0 0.0 0.00 0.00 0.00 99 975.1
20260509092501 75 228 0.0 0.0 0.00 0.00 0.00 99 974.9
20260509092000 84 214 0.0 0.0 0.00 0.00 0.00 87 975.4
20260509091456 84 214 0.0 0.0 0.00 0.00 0.00 87 975.4
20260509090953 84 214 0.0 0.0 0.00 0.00 0.00 87 975.4
20260509090451 84 214 0.0 0.0 0.00 0.00 0.00 87 975.6
20260509085948 84 214 0.0 0.0 0.00 0.00 0.00 87 975.7
20260509085445 84 214 0.0 0.0 0.00 0.00 0.00 87 975.8
20260509084941 84 214 0.0 0.0 0.00 0.00 0.00 87 975.8
20260509084438 84 214 0.0 0.0 0.00 0.00 0.00 87 975.5
20260509083935 87 183 0.0 0.0 0.00 0.00 0.00 78 975.5
20260509083433 88 234 0.0 0.9 0.00 0.00 0.00 75 975.4
20260509082929 89 212 0.0 0.0 0.00 0.00 0.00 70 975.0
20260509082427 91 219 0.0 0.0 0.00 0.00 0.00 68 975.1
20260509081923 91 236 0.0 0.0 0.00 0.00 0.00 69 975.2
20260509081421 91 223 0.0 0.0 0.00 0.00 0.00 69 975.1
20260509080918 92 233 0.0 0.9 0.00 0.00 0.00 67 975.2
20260509080416 90 214 0.0 0.0 0.00 0.00 0.00 69 975.4
20260509075914 89 187 0.0 0.9 0.00 0.00 0.00 71 975.3
20260509075410 89 246 0.0 0.0 0.00 0.00 0.00 74 975.6
20260509074908 89 222 0.0 0.0 0.00 0.00 0.00 75 975.6
20260509074406 89 229 0.0 0.0 0.00 0.00 0.00 72 975.5
20260509073902 88 224 0.0 0.0 0.00 0.00 0.00 78 975.9
20260509073358 87 225 0.0 0.0 0.00 0.00 0.00 79 975.9
20260509072855 86 236 0.0 0.9 0.00 0.00 0.00 78 975.8
20260509072351 86 224 0.0 0.9 0.00 0.00 0.00 77 976.1
20260509071848 88 217 0.0 0.9 0.00 0.00 0.00 76 976.1
20260509071345 87 233 0.0 0.0 0.00 0.00 0.00 76 976.2
20260509070842 87 236 0.9 0.9 0.00 0.00 0.00 79 976.4
20260509070339 86 233 0.0 0.0 0.00 0.00 0.00 82 976.5
20260509065835 86 248 0.9 0.9 0.00 0.00 0.00 80 976.7
20260509065331 85 225 0.0 0.0 0.00 0.00 0.00 82 976.5
20260509064827 84 223 0.0 0.0 0.00 0.00 0.00 83 976.8
20260509064325 86 227 0.0 0.9 0.00 0.00 0.00 80 976.8
20260509063823 86 235 0.0 0.9 0.00 0.00 0.00 81 976.9
20260509063318 85 235 0.0 0.0 0.00 0.00 0.00 86 976.9
20260509062816 85 235 0.0 0.9 0.00 0.00 0.00 83 977.1
20260509062313 84 220 0.9 0.9 0.00 0.00 0.00 87 977.7
20260509061810 84 235 0.0 0.0 0.00 0.00 0.00 89 977.6
20260509061308 82 223 0.0 0.9 0.00 0.00 0.00 93 977.6
20260509060805 82 228 0.0 0.0 0.00 0.00 0.00 94 977.9
20260509060302 81 222 0.0 0.0 0.00 0.00 0.00 92 977.9
20260509055757 79 223 0.0 0.0 0.00 0.00 0.00 95 978.1
20260509055253 79 227 0.0 0.0 0.00 0.00 0.00 95 978.2
20260509054750 79 223 0.0 0.0 0.00 0.00 0.00 97 978.4
20260509054246 79 223 0.0 0.0 0.00 0.00 0.00 97 978.3
20260509053745 79 223 0.0 0.0 0.00 0.00 0.00 96 978.3
20260509053242 79 220 0.0 0.0 0.00 0.00 0.00 96 978.4
20260509052740 79 217 0.0 0.0 0.00 0.00 0.00 94 978.5
20260509052237 79 217 0.0 0.0 0.00 0.00 0.00 94 978.7
20260509051735 79 217 0.0 0.0 0.00 0.00 0.00 94 978.8
20260509051233 79 216 0.0 0.0 0.00 0.00 0.00 94 978.8
20260509050729 80 215 0.0 0.0 0.00 0.00 0.00 93 978.9
20260509050226 80 218 0.0 0.0 0.00 0.00 0.00 92 978.8
20260509045723 80 209 0.0 0.0 0.00 0.00 0.00 90 978.8
20260509045220 80 199 0.0 0.0 0.00 0.00 0.00 89 978.8
20260509044717 80 195 0.0 0.0 0.00 0.00 0.00 88 978.8
20260509044215 81 203 0.0 0.0 0.00 0.00 0.00 87 978.9
20260509043711 82 209 0.0 0.0 0.00 0.00 0.00 86 978.8
20260509043207 82 209 0.0 0.0 0.00 0.00 0.00 86 978.8
20260509042703 82 205 0.0 0.0 0.00 0.00 0.00 84 978.7
20260509042159 83 209 0.0 0.0 0.00 0.00 0.00 84 979.0
20260509041656 84 212 0.0 0.0 0.00 0.00 0.00 82 979.0
20260509041154 84 209 0.0 0.0 0.00 0.00 0.00 84 979.1
20260509040652 84 206 0.0 0.0 0.00 0.00 0.00 81 979.2
20260509040148 86 203 0.0 0.0 0.00 0.00 0.00 78 979.2
20260509035645 86 217 0.0 0.0 0.00 0.00 0.00 78 979.2
20260509035142 85 223 0.0 0.0 0.00 0.00 0.00 79 979.2
20260509034639 85 218 0.0 0.0 0.00 0.00 0.00 79 979.5
20260509034136 86 16 0.9 0.9 0.00 0.00 0.00 76 979.4
20260509033634 86 136 0.0 0.0 0.00 0.00 0.00 77 979.5
20260509033130 86 135 0.0 0.0 0.00 0.00 0.00 76 979.5
20260509032628 86 248 0.0 0.0 0.00 0.00 0.00 77 979.5
20260509032124 87 257 0.9 1.7 0.00 0.00 0.00 76 979.7
20260509031622 86 247 0.0 0.0 0.00 0.00 0.00 78 979.7
20260509031120 86 261 0.0 0.0 0.00 0.00 0.00 77 979.8
20260509030618 86 247 0.0 0.9 0.00 0.00 0.00 77 979.9
20260509030114 86 246 0.0 0.9 0.00 0.00 0.00 79 979.8
20260509025610 86 277 0.0 0.9 0.00 0.00 0.00 79 979.9
20260509025106 85 244 0.0 0.9 0.00 0.00 0.00 80 979.9
20260509024602 83 253 0.0 0.0 0.00 0.00 0.00 82 980.0
20260509024058 83 259 0.0 0.0 0.00 0.00 0.00 84 980.3
20260509023556 82 234 0.0 0.0 0.00 0.00 0.00 85 980.1
20260509023053 81 213 0.0 0.0 0.00 0.00 0.00 86 980.3
20260509022549 81 64 0.9 0.9 0.00 0.00 0.00 85 980.3
20260509022047 81 227 0.0 0.0 0.00 0.00 0.00 86 980.4
20260509021544 82 73 0.0 0.9 0.00 0.00 0.00 85 980.5
20260509021041 82 205 0.0 0.0 0.00 0.00 0.00 87 980.4
20260509020539 81 230 0.0 0.0 0.00 0.00 0.00 88 980.5
20260509020036 80 231 0.0 0.0 0.00 0.00 0.00 90 980.6
20260509015535 80 234 0.0 0.0 0.00 0.00 0.00 89 980.5